Location: 22
(39.7117°N, 89.5929°W)
Time: 08:29:50
(UTC-05:00)

Vanguard 1 - Pass Details

Date: 15 August 2025
Orbit: 654 x 3817 km, 34.2° (Epoch: 12 April)

Event Time Altitude Azimuth Distance (km) Brightness Sun altitude
Rises 19:13:21 0° 248° (WSW) 7,943 15.7 6.7°
Reaches altitude 10° 19:18:53 10° 247° (WSW) 6,900 15.4 5.7°
Maximum altitude 19:41:12 69° 170° (S) 3,163 12.6 1.5°
Drops below altitude 10° 19:54:55 10° 91° (E) 4,532 12.9 -1.0°
Sets 19:57:43 0° 89° (E) 5,203 13.2 -1.5°
